STARLINK-2266 (47997 NORAD) Tracking and Keplerian Element Data

This shows tracking and keplerian element data for the satellite.

Feedback or suggestion? Click here.




ElementValue
Catalog47997
NameSTARLINK-2266
Epoch Orbit196
Epoch Day173.91668981
Epoch Year2021
RAAN117.3359
Inclination53.0472
Eccentricity0.000142
Argument of Perigee70.1965
Mean Anonmoly78.653
Mean Motion15.30066525
Decay Rate-0.01068524
L11 47997U 21024W 21173.91668981 -.01068524 00000-0 -39507-1 0 9990
L22 47997 53.0472 117.3359 0001420 70.1965 78.6530 15.30066525 1961

Live tracking and technical data element details for STARLINK-2266 (NORAD 47997). STARLINK-2266 can be tracked NOW for your location showing map with azimuth and elevation plus other details from your city location.

Track the satellite on the map from your city or location and see movement details for azimuth, elevation, latitude, longitude, range, height, and movement on the map or in text.







IsCatalogInMostPopularTable: catalog: 47997, numindb: 38
Update: records affected: 1



GetName: 47997 STARLINK-2266

Hit Count: updated at: Thu, 24 Jun 2021 04:18:01 GMT